Weather History for St. Joseph, MO

Change the Weather History Date:

Wednesday, January 2, 2013

  Actual Average Record
Temperature  
Mean Temperature 16 °F 26 °F  
Max Temperature 29 °F 36 °F 71 °F (1939)
Min Temperature 3 °F 17 °F -14 °F (1979)
Degree Days  
Heating Degree Days 49 38  
Month to date heating degree days 101 76  
Since 1 July heating degree days 2197 2289  
Cooling Degree Days 0 0  
Month to date cooling degree days 0 0  
Year to date cooling degree days 0 0  
Moisture  
Dew Point 14 °F    
Average Humidity 75    
Maximum Humidity 87    
Minimum Humidity 63    
Precipitation  
Precipitation 0.00 in 0.02 in 0.71 in (1947)
Month to date precipitation 0.00 0.04  
Year to date precipitation 0.00 0.04  
Sea Level Pressure  
Sea Level Pressure 30.21 in    
Wind  
Wind Speed 6 mph (SSW)    
Max Wind Speed 14 mph    
Max Gust Speed 16 mph    
Visibility 10 miles    
Events      
T = Trace of Precipitation, MM = Missing Value Source: NWS Daily Summary

Daily Weather History Graph

Daily Weather History Graph

Search for Another Location

Airport:

Trip Planner

Search our weather history database for the weather conditions in past years. The results will help you decide how hot, cold, wet, or windy it might be!

Date:

Astronomy

Jan. 02, 2013 Rise Set
Actual Time 7:40 AM CST 5:06 PM CST
Civil Twilight 7:10 AM CST 5:37 PM CST
Nautical Twilight 6:36 AM CST 6:10 PM CST
Astronomical Twilight 6:04 AM CST 6:43 PM CST
Moon 10:39 PM CST 10:23 AM CST
Length of Visible Light 10h 26m
Length of Day
9h 25m
Waning Gibbous, 75% of the Moon is Illuminated
Jan 2
Waning Gibbous
Jan 4
Last Quarter
Jan 11
New
Jan 18
First Quarter
Jan 26
Full

Hourly Weather History & Observations

Time (CST) Temp. Windchill Dew Point Humidity Pressure Visibility Wind Dir Wind Speed Gust Speed Precip Events Conditions
12:53 AM 3.9 °F - -0.0 °F 84% 30.27 in 10.0 mi Calm Calm - N/A   Clear
1:53 AM 6.1 °F -0.9 °F 1.0 °F 80% 30.25 in 10.0 mi SSE 3.5 mph - N/A   Clear
2:53 AM 10.0 °F 1.8 °F 3.9 °F 76% 30.24 in 10.0 mi South 4.6 mph - N/A   Clear
3:53 AM 8.1 °F -2.0 °F 5.0 °F 87% 30.22 in 9.0 mi South 5.8 mph - N/A   Clear
4:53 AM 5.0 °F -2.1 °F 1.0 °F 84% 30.22 in 8.0 mi South 3.5 mph - N/A   Clear
5:53 AM 12.0 °F 0.5 °F 8.1 °F 84% 30.22 in 8.0 mi South 8.1 mph - N/A   Clear
6:53 AM 12.9 °F 5.2 °F 9.0 °F 84% 30.20 in 8.0 mi SSW 4.6 mph - N/A   Clear
7:53 AM 12.9 °F 6.9 °F 9.0 °F 84% 30.20 in 6.0 mi SSW 3.5 mph - N/A   Clear
8:53 AM 15.1 °F 5.2 °F 10.9 °F 84% 30.18 in 8.0 mi SSW 6.9 mph - N/A   Clear
9:53 AM 19.0 °F 11.1 °F 14.0 °F 81% 30.21 in 10.0 mi SSW 5.8 mph - N/A   Clear
10:53 AM 23.0 °F 14.7 °F 16.0 °F 74% 30.21 in 10.0 mi SSW 6.9 mph - N/A   Clear
11:53 AM 26.1 °F 18.4 °F 17.1 °F 69% 30.19 in 10.0 mi SW 6.9 mph - N/A   Clear
12:53 PM 27.0 °F 17.3 °F 17.1 °F 66% 30.16 in 10.0 mi SSW 10.4 mph - N/A   Clear
1:53 PM 28.0 °F 18.1 °F 17.1 °F 63% 30.16 in 10.0 mi West 11.5 mph - N/A   Clear
2:53 PM 28.0 °F 18.6 °F 18.0 °F 66% 30.16 in 10.0 mi WSW 10.4 mph - N/A   Mostly Cloudy
3:53 PM 28.0 °F 20.0 °F 19.0 °F 69% 30.18 in 10.0 mi West 8.1 mph - N/A   Overcast
4:53 PM 28.0 °F 24.2 °F 19.0 °F 69% 30.19 in 10.0 mi West 3.5 mph - N/A   Overcast
5:28 PM 26.6 °F 21.2 °F 19.4 °F 74% 30.17 in 10.0 mi WSW 4.6 mph - N/A   Overcast
5:37 PM 26.6 °F 21.2 °F 19.4 °F 74% 30.17 in 10.0 mi SW 4.6 mph - N/A   Overcast
5:53 PM 26.1 °F 20.5 °F 19.0 °F 75% 30.22 in 10.0 mi WSW 4.6 mph - N/A   Mostly Cloudy
6:53 PM 28.0 °F - 21.0 °F 75% 30.22 in 10.0 mi Calm Calm - N/A   Overcast
7:53 PM 25.0 °F 18.1 °F 19.9 °F 81% 30.24 in 10.0 mi South 5.8 mph - N/A   Overcast
8:51 PM 26.6 °F 21.2 °F 21.2 °F 80% 30.22 in 10.0 mi South 4.6 mph - N/A   Overcast
8:53 PM 27.0 °F 23.0 °F 21.0 °F 78% 30.26 in 10.0 mi South 3.5 mph - N/A   Overcast
9:12 PM 26.6 °F 21.2 °F 21.2 °F 80% 30.22 in 10.0 mi SSW 4.6 mph - N/A   Overcast
9:53 PM 27.0 °F 20.5 °F 21.0 °F 78% 30.27 in 10.0 mi South 5.8 mph - N/A   Overcast
10:53 PM 24.1 °F 17.0 °F 19.0 °F 81% 30.28 in 10.0 mi SSE 5.8 mph - N/A   Mostly Cloudy
11:53 PM 19.9 °F 12.1 °F 17.1 °F 89% 30.28 in 8.0 mi South 5.8 mph - N/A   Partly Cloudy